Regional Weather Roundup
Issued by NWS Wilmington, NC

Home | Current Version | Previous Version | Text Only | Print | Product List | Glossary On
Versions: 1 2 3 4 5 6 7 8 9 10 11 12 13 14 15 16 17 18 19 20 21 22 23 24 25 26 27
000
ASUS42 KILM 231713
RWRILM
RWRILM
REGIONAL HOURLY WEATHER ROUNDUP
NATIONAL WEATHER SERVICE WILMINGTON NC
100 PM EDT WED AUG 23 2017

NOTE: "FAIR" INDICATES FEW OR NO CLOUDS BELOW 12,000 FEET WITH NO
SIGNIFICANT WEATHER AND/OR OBSTRUCTIONS TO VISIBILITY.

...............WFO WILMINGTON COUNTY WARNING AREA...............

......COASTAL NC AND SC COUNTIES......

CITY           SKY/WX    TMP DP  RH WIND       PRES   REMARKS
WILMINGTON     MOSUNNY   91  74  57 SW8       29.89F HX 100
N MYRTLE BEACH MOSUNNY   87  76  69 S14       29.90F HX  97
MYRTLE BEACH   MOSUNNY   90  75  62 SW12      29.91F HX 100

......INLAND NC AND SC COUNTIES.......

CITY           SKY/WX    TMP DP  RH WIND       PRES   REMARKS
LUMBERTON      SUNNY     92  76  59 SW7       29.87F HX 104
ELIZABETHTOWN  NOT AVBL
WHITEVILLE     SUNNY     90  75  62 S7        29.89F HX 100
FLORENCE       MOSUNNY   91  73  55 SW8       29.89F HX  99
DARLINGTON     MOSUNNY   92  74  55 VRB7      29.89F HX 101
KINGSTREE      FAIR      90  75  62 SW8       29.90F HX 100
HARTSVILLE     FAIR      91  70  49 W6        29.89F HX  97
BENNETTSVILLE  FAIR      95  72  46 SW8       29.88F HX 103
CONWAY         FAIR      88  77  70 SW9       29.90F HX 100
GEORGETOWN     FAIR      88  77  70 W5        29.93F HX 100
MARION         FAIR      90  72  55 W6        29.89F HX  96

....................REST OF NORTH CAROLINA......................

.........EASTERN NC.........

CITY           SKY/WX    TMP DP  RH WIND       PRES   REMARKS
CAPE HATTERAS  MOSUNNY   86  79  79 SW13      29.89F HX  99
JACKSONVILLE   MOSUNNY   91  78  65 S10       29.88F HX 106
MOREHEAD CITY  CLOUDY    87  79  76 W16G22    29.89F HX 101
KENANSVILLE    MOSUNNY   90  75  62 SW7       29.88F HX 100
NEW BERN       PTSUNNY   89  76  65 W6        29.89F HX 100
ELIZABETH CITY PTSUNNY   88  79  74 VRB5      29.85F HX 103

.........CENTRAL NC.........

CITY           SKY/WX    TMP DP  RH WIND       PRES   REMARKS
RALEIGH DURHAM MOSUNNY   92  72  51 VRB6      29.88F HX  99
ROCKY MOUNT    SUNNY     91  77  63 VRB6      29.87F HX 104
ROANOKE RAPIDS NOT AVBL
FAYETTEVILLE   SUNNY     93  74  53 CALM      29.87F HX 103
HOFFMAN        MOSUNNY   94  69  43 W12       29.88F HX  98

.........WESTERN NC.........

CITY           SKY/WX    TMP DP  RH WIND       PRES   REMARKS
CHARLOTTE      MOSUNNY   90  73  57 VRB6      29.91F HX  98
GREENSBORO     CLOUDY    87  69  54 NW7       29.90F HX  91
HICKORY        NOT AVBL
BOONE          NOT AVBL
ASHEVILLE      NOT AVBL

.....................REST OF SOUTH CAROLINA.....................

.........EASTERN SC.........

CITY           SKY/WX    TMP DP  RH WIND       PRES   REMARKS
CHARLESTON     MOSUNNY   90  76  63 W8        29.91F HX 101
BEAUFORT MCAS  MOSUNNY   91  76  61 W7        29.92F HX 103
HILTON HEAD    MOSUNNY   88  77  70 E6        29.94F HX 100

.........CENTRAL SC.........

CITY           SKY/WX    TMP DP  RH WIND       PRES   REMARKS
COLUMBIA       MOSUNNY   94  71  47 SW12      29.88F HX 101
ORANGEBURG     MOSUNNY   93  70  46 SW10      29.90F HX  99
SUMTER SHAW    MOSUNNY   94  70  45 SW13      29.87F HX 100

.........WESTERN SC.........

CITY           SKY/WX    TMP DP  RH WIND       PRES   REMARKS
GREENVILLE     NOT AVBL
ROCK HILL      SUNNY     89  75  63 W6        29.91F HX  99
ANDERSON       SUNNY     90  69  50 VRB3      29.92F HX  94
CLEMSON        NOT AVBL
GREENWOOD      MOSUNNY   89  70  53 SW8       29.93F HX  94


...................COASTAL AND OFFSHORE REPORTS..................

................LOCAL PIERS AND NC RESERVE................


STATION/POSITION TIME  SKY/WX   TEMP    WIND        PRES    VSBY
                                AIR SEA DIR/SP/G
                 (UTC)          (F)     (DEG/KT/KT) (MB)    (MI)
JOHNY MRCER PIER 1648            85 84  190/ 15/ 17 1011.4F
NC RESRV MASNBRO NOT AVBL
OCEAN CREST PIER NOT AVBL
SPRINGMAID  PIER 1648                               1012.0F


................COASTAL AND OFFSHORE BUOYS................


STATION/POSITION TIME  SKY/WX   TEMP    WIND        PRES    VSBY
                                AIR SEA DIR/SP/G
                 (UTC)          (F)     (DEG/KT/KT) (MB)    (MI)
DIMNDSHOAL 41025 1650            83 85  220/ 16/ 17 1012.3F
WVE H/P(F/S)=  4/ 5 SWL H/P/D(F/S/D)=  2/120/ 9

CAPE LOOKOUT     1700            84     230/ 11/ 16 1012.0F
ONSLOW BAY 41036 NOT AVBL
ONSLOW BAY 41064 1608            81 84  240/ 16/ 19 1013.2F
ONSLOW BAY 41159 1643               84                N/A
WVE H/P(F/S)=  4/10 SWL H/P/D(F/S/D)=  2/130/11

MASNBO INL 41110 1659               84                N/A
WVE H/P(F/S)=  3/ 9

WILM HARBR 41108 1600               85                N/A
WVE H/P(F/S)=  4/10

27SE WRITB 41037 1608            82 84  210/ 14/ 19 1013.2F
FRYING PAN 41013 1650            82 84  220/ 14/ 16 1013.3F
WVE H/P(F/S)=  4/ 9 SWL H/P/D(F/S/D)=  2/130/ 9

SUNST NRSH 41024 1608            83 86  220/ 10/ 12 1013.0F
CAPRS NRSH 41029 1608            83 86  230/  8/ 12 1013.7F
EDISTO     41004 1650            83 84  230/  8/ 10 1013.5F
WVE H/P(F/S)=  4/ 9 SWL H/P/D(F/S/D)=  3/120/ 9



..........OFFSHORE BUOYS BEYOND 100 NM OFFSHORE...........
.....IN A TRIANGLE---HAT TO BERMUDA TO BAHAMAS TO HAT.....


STATION/POSITION TIME  SKY/WX   TEMP    WIND        PRES    VSBY
                                AIR SEA DIR/SP/G
                 (UTC)          (F)     (DEG/KT/KT) (MB)    (MI)
150E HAT   41001 1700               82  210/ 14/ 16 1014.4
W BERMUDA  41048 1700            83 84  210/  2/  6 1016.0
ATLANTIC S 41049 1650            81 85  300/  4/  6 1016.0F
WVE H/P(F/S)=  5/ 9 SWL H/P/D(F/S/D)=  5/100/ 9

E BAHAMAS  41046 1700            83 84  120/  2/  4 1015.5
NE BAHAMAS 41047 1700            84 85   60/  6/  8 1016.2
120E CANVRL41010 1700            83 85  190/  8/ 10 1014.6

END




USA.gov is the U.S. government's official web portal to all federal, state and local government web resources and services.